KB1DML-3 Weather Reports


Display with metric or nautical units.
time (UTC)temp
F
wind
direction
speed
MPH
gust
MPH
rain 1hr
in
rain 24hr
in
rain mn
in
humidity
%
barometer
mb
20260506221521 54 203 20.0 23.0 0.00 0.00 0.00 92
20260506221041 54 203 20.0 25.0 0.00 0.00 0.00 92
20260506220540 54 203 21.0 25.0 0.00 0.00 0.00 92
20260506220043 54 203 20.0 24.0 0.00 0.00 0.00 92
20260506215559 54 203 20.0 24.0 0.00 0.00 0.00 92
20260506214557 54 203 21.0 25.0 0.00 0.00 0.00 92
20260506214040 54 203 22.0 26.0 0.00 0.00 0.00 91
20260506213521 54 203 22.0 27.0 0.00 0.00 0.00 91
20260506213021 54 203 22.0 26.0 0.00 0.00 0.00 91
20260506212520 54 203 23.0 29.0 0.00 0.00 0.00 91
20260506212023 55 203 23.0 28.0 0.00 0.00 0.00 91
20260506211542 54 203 22.0 29.0 0.00 0.00 0.00 90
20260506211021 55 203 22.0 26.0 0.00 0.00 0.00 90
20260506210542 55 203 21.0 26.0 0.00 0.00 0.00 89
20260506210021 55 203 21.0 25.0 0.00 0.00 0.00 89
20260506205524 55 203 21.0 26.0 0.00 0.00 0.00 89
20260506205024 55 203 21.0 25.0 0.00 0.00 0.00 89
20260506204524 55 203 22.0 25.0 0.00 0.00 0.00 89
20260506204025 55 203 23.0 28.0 0.00 0.00 0.00 89
20260506203525 55 203 23.0 27.0 0.00 0.00 0.00 89
20260506203021 55 203 24.0 28.0 0.00 0.00 0.00 88
20260506202521 55 203 24.0 27.0 0.00 0.00 0.00 88
20260506202045 55 203 23.0 27.0 0.00 0.00 0.00 88
20260506201520 55 203 23.0 27.0 0.00 0.00 0.00 87
20260506201020 55 203 24.0 32.0 0.00 0.00 0.00 87
20260506200550 55 203 25.0 29.0 0.00 0.00 0.00 87
20260506200023 55 203 25.0 32.0 0.00 0.00 0.00 86
20260506195520 56 203 25.0 29.0 0.00 0.00 0.00 86
20260506195023 56 203 25.0 31.0 0.00 0.00 0.00 86
20260506194524 56 203 26.0 31.0 0.00 0.00 0.00 86
20260506194021 56 203 25.0 30.0 0.00 0.00 0.00 86
20260506193520 56 203 25.0 30.0 0.00 0.00 0.00 85
20260506193020 56 203 24.0 27.0 0.00 0.00 0.00 85
20260506192520 56 203 25.0 29.0 0.00 0.00 0.00 85
20260506192020 56 203 25.0 29.0 0.00 0.00 0.00 85
20260506191523 56 203 24.0 28.0 0.00 0.00 0.00 85
20260506185521 57 203 24.0 32.0 0.00 0.00 0.00 85
20260506185021 57 203 26.0 30.0 0.00 0.00 0.00 84
20260506184521 57 203 27.0 32.0 0.00 0.00 0.00 85
20260506182020 55 203 22.0 25.0 0.00 0.00 0.00 86
20260506181523 55 203 23.0 26.0 0.00 0.00 0.00 86
20260506180523 55 203 24.0 27.0 0.00 0.00 0.00 87
20260506180044 55 203 22.0 26.0 0.00 0.00 0.00 86
20260506175520 55 203 22.0 27.0 0.00 0.00 0.00 86
20260506175047 55 203 22.0 26.0 0.00 0.00 0.00 86
20260506174520 56 203 22.0 25.0 0.00 0.00 0.00 85
20260506174020 56 203 24.0 28.0 0.00 0.00 0.00 86
20260506173522 56 203 24.0 27.0 0.00 0.00 0.00 86
20260506173021 56 203 24.0 28.0 0.00 0.00 0.00 86
20260506172522 56 203 24.0 28.0 0.00 0.00 0.00 86
20260506172026 55 203 23.0 28.0 0.00 0.00 0.00 86
20260506171522 55 203 24.0 28.0 0.00 0.00 0.00 86
20260506171022 55 203 25.0 29.0 0.00 0.00 0.00 86
20260506170542 55 203 24.0 30.0 0.00 0.00 0.00 86
20260506170022 55 203 23.0 26.0 0.00 0.00 0.00 85
20260506165523 56 203 23.0 26.0 0.00 0.00 0.00 85
20260506165042 56 203 23.0 28.0 0.00 0.00 0.00 86
20260506164523 56 203 23.0 28.0 0.00 0.00 0.00 86
20260506164023 56 203 23.0 26.0 0.00 0.00 0.00 86
20260506163542 56 203 22.0 27.0 0.00 0.00 0.00 87
20260506163023 55 203 23.0 29.0 0.00 0.00 0.00 88
20260506162522 55 203 22.0 26.0 0.00 0.00 0.00 89
20260506162022 54 203 18.0 23.0 0.00 0.00 0.00 89
20260506161521 53 203 16.0 18.0 0.00 0.00 0.00 88
20260506161022 53 203 18.0 20.0 0.00 0.00 0.00 88
20260506160539 54 203 19.0 23.0 0.00 0.00 0.00 88
20260506160025 54 203 19.0 24.0 0.00 0.00 0.00 88
20260506155522 54 203 19.0 22.0 0.00 0.00 0.00 88
20260506155026 54 203 20.0 24.0 0.00 0.00 0.00 89
20260506154521 53 203 19.0 22.0 0.00 0.00 0.00 89
20260506154022 53 203 18.0 21.0 0.00 0.00 0.00 89
20260506153521 53 203 17.0 20.0 0.00 0.00 0.00 89
20260506153042 53 203 17.0 19.0 0.00 0.00 0.00 89
20260506152521 53 203 16.0 19.0 0.00 0.00 0.00 90
20260506151522 53 203 17.0 20.0 0.00 0.00 0.00 89
20260506151042 53 203 15.0 18.0 0.00 0.00 0.00 90
20260506150521 53 203 15.0 18.0 0.00 0.00 0.00 90
20260506150042 53 203 15.0 18.0 0.00 0.00 0.00 90
20260506145542 53 203 14.0 17.0 0.00 0.00 0.00 90
20260506145022 53 203 14.0 16.0 0.00 0.00 0.00 90
20260506144522 53 203 14.0 16.0 0.00 0.00 0.00 90
20260506144021 53 203 14.0 18.0 0.00 0.00 0.00 90
20260506143558 0 203 14.0 17.0 0.00 0.00 0.00
20260506143021 0 203 14.0 16.0 0.00 0.00 0.00
20260506142522 0 203 12.0 15.0 0.00 0.00 0.00
20260506142021 0 203 10.0 13.0 0.00 0.00 0.00
20260506141542 0 203 10.0 11.0 0.00 0.00 0.00
20260506141022 0 203 10.0 11.0 0.00 0.00 0.00
20260506140525 0 203 11.0 13.0 0.00 0.00 0.00
20260506140022 0 203 11.0 14.0 0.00 0.00 0.00
20260506135525 0 203 12.0 13.0 0.00 0.00 0.00
20260506135021 0 203 12.0 14.0 0.00 0.00 0.00
20260506134544 0 203 13.0 15.0 0.00 0.00 0.00
20260506134021 0 203 14.0 17.0 0.00 0.00 0.00
20260506133522 0 203 15.0 17.0 0.00 0.00 0.00
20260506133021 0 203 16.0 19.0 0.00 0.00 0.00
20260506132521 0 203 18.0 23.0 0.00 0.00 0.00
20260506132021 0 203 17.0 21.0 0.00 0.00 0.00
20260506131521 0 225 16.0 20.0 0.00 0.00 0.00
20260506131022 0 203 17.0 21.0 0.00 0.00 0.00
20260506130521 0 203 17.0 21.0 0.00 0.00 0.00
20260506124022 0 203 17.0 20.0 0.00 0.00 0.00
20260506123523 0 203 18.0 21.0 0.00 0.00 0.00
20260506123021 0 203 19.0 23.0 0.00 0.00 0.00
20260506122542 0 203 18.0 24.0 0.00 0.00 0.00
20260506122021 0 203 17.0 21.0 0.00 0.00 0.00
20260506121542 0 203 18.0 24.0 0.00 0.00 0.00
20260506121021 0 203 20.0 23.0 0.00 0.00 0.00
20260506114021 0 203 17.0 23.0 0.00 0.00 0.00
20260506113601 0 203 19.0 23.0 0.00 0.00 0.00
20260506113025 0 203 19.0 23.0 0.00 0.00 0.00
20260506112527 0 203 18.0 22.0 0.00 0.00 0.00
20260506112021 0 203 18.0 23.0 0.00 0.00 0.00
20260506111521 0 203 19.0 24.0 0.00 0.00 0.00
20260506111022 0 203 19.0 22.0 0.00 0.00 0.00
20260506105025 0 225 18.0 24.0 0.00 0.00 0.00
20260506104521 0 225 18.0 24.0 0.00 0.00 0.00
20260506104021 0 225 18.0 23.0 0.00 0.00 0.00
20260506103541 0 225 18.0 23.0 0.00 0.00 0.00
20260506103022 0 225 16.0 22.0 0.00 0.00 0.00
20260506102525 0 225 16.0 21.0 0.00 0.00 0.00
20260506102042 0 225 16.0 20.0 0.00 0.00 0.00
20260506095021 0 225 14.0 19.0 0.00 0.00 0.00
20260506094531 0 225 14.0 20.0 0.00 0.00 0.00
20260506094022 0 225 14.0 20.0 0.00 0.00 0.00
20260506093521 0 225 14.0 19.0 0.00 0.00 0.00
20260506093021 0 225 15.0 20.0 0.00 0.00 0.00
20260506092521 0 225 15.0 21.0 0.00 0.00 0.00
20260506092021 0 225 12.0 19.0 0.00 0.00 0.00
20260506091041 0 225 13.0 20.0 0.00 0.00 0.00
20260506090521 0 225 13.0 22.0 0.00 0.00 0.00
20260506090020 0 225 15.0 22.0 0.00 0.00 0.00
20260506085619 0 225 14.0 22.0 0.00 0.00 0.00
20260506084021 0 225 13.0 21.0 0.00 0.00 0.00
20260506083524 0 225 13.0 21.0 0.00 0.00 0.00
20260506083020 0 225 15.0 23.0 0.00 0.00 0.00
20260506082521 0 225 13.0 21.0 0.00 0.00 0.00
20260506082024 0 225 12.0 20.0 0.00 0.00 0.00
20260506081021 0 225 14.0 21.0 0.00 0.00 0.00
20260506080523 0 225 16.0 22.0 0.00 0.00 0.00
20260506073521 0 225 15.0 21.0 0.00 0.00 0.00
20260506073043 0 225 16.0 21.0 0.00 0.00 0.00
20260506072544 0 225 15.0 21.0 0.00 0.00 0.00
20260506072041 0 225 14.0 21.0 0.00 0.00 0.00
20260506071522 0 225 15.0 21.0 0.00 0.00 0.00
20260506071040 0 225 15.0 20.0 0.00 0.00 0.00
20260506070521 0 225 16.0 21.0 0.00 0.00 0.00
20260506062021 0 203 20.0 24.0 0.00 0.00 0.00
20260506061020 0 203 20.0 25.0 0.00 0.00 0.00
20260506060523 0 225 20.0 25.0 0.00 0.00 0.00
20260506051041 0 225 17.0 26.0 0.00 0.00 0.00
20260506050520 0 225 16.0 24.0 0.00 0.00 0.00
20260506045021 0 203 18.0 21.0 0.00 0.00 0.00
20260506044523 0 203 18.0 21.0 0.00 0.00 0.00
20260506044058 0 203 18.0 24.0 0.00 0.00 0.00
20260506043520 0 203 18.0 21.0 0.00 0.00 0.00
20260506043024 0 203 18.0 20.0 0.00 0.00 0.00
20260506042031 0 203 19.0 22.0 0.00 0.00 0.00
20260506041601 0 203 20.0 25.0 0.00 0.00 0.00
20260506040609 0 203 20.0 24.0 0.00 0.00 0.00
20260506040044 0 203 20.0 25.0 0.00 0.00 0.00
20260506035522 0 203 20.0 26.0 0.00 0.00 0.00
20260506035022 0 203 21.0 25.0 0.00 0.00 0.00
20260506034521 0 203 21.0 27.0 0.00 0.00 0.00
20260506034021 0 203 21.0 25.0 0.00 0.00 0.00
20260506033021 0 203 21.0 24.0 0.00 0.00 0.00
20260506032521 0 203 20.0 24.0 0.00 0.00 0.00
20260506032041 0 203 18.0 22.0 0.00 0.00 0.00
20260506031528 0 203 18.0 21.0 0.00 0.00 0.00
20260506031021 0 203 18.0 20.0 0.00 0.00 0.00
20260506030522 0 203 18.0 20.0 0.00 0.00 0.00
20260506030022 0 203 17.0 21.0 0.00 0.00 0.00
20260506025521 0 203 16.0 20.0 0.00 0.00 0.00
20260506025021 0 203 16.0 18.0 0.00 0.00 0.00
20260506024521 0 203 17.0 23.0 0.00 0.00 0.00
20260506024120 0 203 20.0 23.0 0.00 0.00 0.00
20260506023521 0 203 20.0 23.0 0.00 0.00 0.00
20260506021521 0 203 18.0 21.0 0.00 0.00 0.00
20260506021021 0 203 18.0 21.0 0.00 0.00 0.00
20260506020532 0 203 18.0 22.0 0.00 0.00 0.00
20260506020023 0 203 19.0 23.0 0.00 0.00 0.00
20260506015522 0 203 19.0 22.0 0.00 0.00 0.00
20260506015021 0 203 20.0 24.0 0.00 0.00 0.00
20260506014521 0 225 20.0 25.0 0.00 0.00 0.00
20260506014021 0 225 19.0 25.0 0.00 0.00 0.00
20260506013521 0 203 21.0 26.0 0.00 0.00 0.00
20260506013021 0 203 22.0 25.0 0.00 0.00 0.00
20260506012521 0 203 22.0 27.0 0.00 0.00 0.00
20260506011020 0 203 23.0 27.0 0.00 0.00 0.00
20260506010021 0 203 23.0 27.0 0.00 0.00 0.00
20260506005522 0 203 23.0 27.0 0.00 0.00 0.00
20260506005021 0 203 23.0 28.0 0.00 0.00 0.00
20260506004602 0 203 22.0 27.0 0.00 0.00 0.00
20260506004020 0 203 21.0 26.0 0.00 0.00 0.00
20260506003520 0 203 21.0 24.0 0.00 0.00 0.00
20260506003020 0 203 20.0 24.0 0.00 0.00 0.00
20260506002558 0 203 22.0 26.0 0.00 0.00 0.00
20260506002021 0 203 22.0 26.0 0.00 0.00 0.00
20260506001521 0 203 22.0 25.0 0.00 0.00 0.00
20260506000535 0 203 21.0 27.0 0.00 0.00 0.00
20260505235521 0 203 20.0 25.0 0.00 0.00 0.00
20260505235020 0 203 22.0 26.0 0.00 0.00 0.00
20260505234521 0 203 22.0 27.0 0.00 0.00 0.00
20260505234021 0 203 23.0 27.0 0.00 0.00 0.00
20260505233521 56 203 24.0 28.0 0.00 0.00 0.00 79
20260505232020 56 203 24.0 27.0 0.00 0.00 0.00 79
20260505231619 57 203 24.0 28.0 0.00 0.00 0.00 78
20260505231021 57 203 25.0 30.0 0.00 0.00 0.00 77
20260505230521 57 203 26.0 30.0 0.00 0.00 0.00 77
20260505230024 57 203 25.0 29.0 0.00 0.00 0.00 77
20260505225541 57 203 25.0 31.0 0.00 0.00 0.00 76
20260505225021 58 203 27.0 33.0 0.00 0.00 0.00 77
20260505224520 57 203 26.0 31.0 0.00 0.00 0.00 78
20260505224020 56 203 25.0 30.0 0.00 0.00 0.00 78
20260505223523 56 203 26.0 33.0 0.00 0.00 0.00 79
20260505223020 56 203 23.0 28.0 0.00 0.00 0.00 79
20260505222520 56 203 22.0 27.0 0.00 0.00 0.00 79
20260505222041 57 203 22.0 25.0 0.00 0.00 0.00 80